�������l�o���
Date,Time,MP-1(��Sv/h),MP-2(��Sv/h),MP-3(��Sv/h),MP-4(��Sv/h),MP-5(��Sv/h),MP-6(��Sv/h),MP-7(��Sv/h),MP-8(��Sv/h),����,����(m/s),���J
2022/08/17,00:00,0.594,0.836,0.532,1.008,0.725,0.341,0.589,0.556,��,7.8,��
2022/08/17,00:10,0.592,0.836,0.532,1.007,0.727,0.343,0.589,0.558,��,10.4,��
2022/08/17,00:20,0.594,0.834,0.533,1.007,0.726,0.342,0.590,0.558,��,10.9,��
2022/08/17,00:30,0.596,0.837,0.533,1.006,0.727,0.342,0.590,0.556,��,10.2,��
2022/08/17,00:40,0.594,0.836,0.532,1.008,0.726,0.342,0.590,0.558,��,12.4,��
2022/08/17,00:50,0.594,0.835,0.533,1.007,0.728,0.342,0.589,0.558,��,11.7,��
2022/08/17,01:00,0.592,0.835,0.534,1.007,0.727,0.342,0.591,0.557,��,10.9,��
2022/08/17,01:10,0.594,0.836,0.534,1.009,0.729,0.342,0.589,0.557,��,12.4,��
2022/08/17,01:20,0.593,0.836,0.533,1.010,0.726,0.342,0.591,0.559,��,11.3,��
2022/08/17,01:30,0.593,0.837,0.534,1.007,0.727,0.342,0.591,0.559,��,13.0,��
2022/08/17,01:40,0.595,0.835,0.534,1.009,0.727,0.342,0.591,0.559,��,13.3,��
2022/08/17,01:50,0.595,0.837,0.534,1.010,0.728,0.342,0.592,0.557,��,13.8,��
2022/08/17,02:00,0.594,0.836,0.533,1.010,0.727,0.344,0.592,0.559,��,11.8,��
2022/08/17,02:10,0.595,0.837,0.533,1.009,0.726,0.342,0.590,0.558,��,11.8,��
2022/08/17,02:20,0.594,0.837,0.534,1.010,0.727,0.342,0.590,0.558,��,12.4,��
2022/08/17,02:30,0.596,0.836,0.533,1.011,0.726,0.343,0.591,0.558,��,10.2,��
2022/08/17,02:40,0.595,0.837,0.532,1.010,0.728,0.344,0.590,0.558,���k��,11.0,��
2022/08/17,02:50,0.595,0.837,0.534,1.012,0.729,0.341,0.591,0.559,��,6.9,��
2022/08/17,03:00,0.593,0.838,0.535,1.011,0.726,0.343,0.592,0.560,���k��,6.6,��
2022/08/17,03:10,0.595,0.837,0.533,1.012,0.728,0.343,0.590,0.561,�k��,6.2,��
2022/08/17,03:20,0.594,0.837,0.534,1.013,0.727,0.342,0.590,0.559,�k�k��,6.7,��
2022/08/17,03:30,0.595,0.838,0.534,1.009,0.730,0.342,0.592,0.560,�k��,6.5,��
2022/08/17,03:40,0.594,0.836,0.534,1.011,0.729,0.342,0.591,0.559,���k��,4.7,��
2022/08/17,03:50,0.595,0.837,0.533,1.010,0.728,0.343,0.591,0.559,�k��,4.6,��
2022/08/17,04:00,0.592,0.837,0.533,1.011,0.727,0.342,0.591,0.560,���k��,4.2,��
2022/08/17,04:10,0.594,0.837,0.533,1.011,0.728,0.342,0.591,0.560,���k��,3.4,��
2022/08/17,04:20,0.595,0.836,0.532,1.012,0.729,0.342,0.591,0.559,�k��,4.3,��
2022/08/17,04:30,0.594,0.838,0.534,1.012,0.728,0.341,0.592,0.559,�k�k��,2.9,��
2022/08/17,04:40,0.593,0.836,0.533,1.011,0.728,0.343,0.590,0.558,�k,4.6,��
2022/08/17,04:50,0.595,0.837,0.532,1.011,0.728,0.341,0.591,0.560,�k�k��,5.2,��
2022/08/17,05:00,0.595,0.837,0.533,1.014,0.728,0.342,0.591,0.560,�k��,4.0,��
2022/08/17,05:10,0.594,0.837,0.534,1.011,0.728,0.342,0.590,0.560,�k��,2.6,��
2022/08/17,05:20,0.592,0.838,0.534,1.012,0.729,0.342,0.589,0.561,�k�k��,1.7,��
2022/08/17,05:30,0.595,0.838,0.533,1.013,0.729,0.341,0.589,0.561,�k�k��,2.3,��
2022/08/17,05:40,0.594,0.837,0.532,1.013,0.728,0.341,0.589,0.560,�k�k��,1.5,��
2022/08/17,05:50,0.594,0.838,0.532,1.010,0.728,0.341,0.590,0.559,�k�k��,1.2,��
2022/08/17,06:00,0.593,0.839,0.533,1.012,0.729,0.341,0.590,0.559,�k��,1.5,��
2022/08/17,06:10,0.593,0.840,0.533,1.009,0.728,0.340,0.591,0.559,�k�k��,0.9,��
2022/08/17,06:20,0.593,0.838,0.533,1.014,0.729,0.342,0.590,0.559,���쓌,2.0,��
2022/08/17,06:30,0.592,0.837,0.531,1.014,0.728,0.340,0.590,0.558,�쓌,1.7,��
2022/08/17,06:40,0.593,0.840,0.533,1.012,0.729,0.340,0.591,0.559,�k��,0.6,��
2022/08/17,06:50,0.592,0.839,0.532,1.010,0.728,0.342,0.591,0.563,�k��,2.0,��
2022/08/17,07:00,0.593,0.839,0.532,1.013,0.726,0.341,0.591,0.559,�k�k��,1.5,��
2022/08/17,07:10,0.594,0.840,0.533,1.012,0.725,0.340,0.591,0.561,-,CALM,��
2022/08/17,07:20,0.593,0.839,0.531,1.014,0.727,0.340,0.590,0.560,��,0.8,��
2022/08/17,07:30,0.592,0.838,0.531,1.011,0.727,0.341,0.590,0.560,���쓌,1.9,��
2022/08/17,07:40,0.593,0.840,0.533,1.011,0.726,0.339,0.591,0.559,��,1.7,��
2022/08/17,07:50,0.593,0.838,0.532,1.014,0.728,0.341,0.589,0.559,��,1.9,��
2022/08/17,08:00,0.593,0.840,0.533,1.010,0.728,0.342,0.591,0.560,��,1.2,��
2022/08/17,08:10,0.593,0.838,0.533,1.010,0.727,0.341,0.591,0.559,�쓌,2.5,��
2022/08/17,08:20,0.593,0.838,0.533,1.008,0.728,0.341,0.590,0.560,��쓌,2.0,��
2022/08/17,08:30,0.593,0.837,0.532,1.011,0.727,0.340,0.589,0.559,�쓌,2.0,��
2022/08/17,08:40,0.592,0.839,0.533,1.011,0.729,0.340,0.589,0.559,���쓌,2.5,�L
2022/08/17,08:50,0.593,0.838,0.530,1.011,0.729,0.340,0.591,0.559,��,1.9,��
2022/08/17,09:00,0.593,0.838,0.534,1.011,0.729,0.339,0.592,0.559,��,2.0,��
2022/08/17,09:10,0.594,0.840,0.533,1.012,0.727,0.339,0.590,0.559,�쓌,1.7,��
2022/08/17,09:20,0.593,0.837,0.533,1.010,0.727,0.341,0.591,0.561,��,1.7,��
2022/08/17,09:30,0.592,0.839,0.533,1.011,0.727,0.342,0.590,0.558,���쓌,1.4,��
2022/08/17,09:40,0.591,0.839,0.533,1.012,0.728,0.340,0.590,0.558,���쓌,1.5,��
2022/08/17,09:50,0.593,0.838,0.533,1.011,0.728,0.340,0.591,0.558,��쓌,1.5,��
2022/08/17,10:00,0.592,0.838,0.532,1.014,0.730,0.340,0.590,0.559,��쓌,1.5,��
2022/08/17,10:10,0.593,0.842,0.533,1.011,0.728,0.340,0.591,0.558,��,2.0,��
2022/08/17,10:20,0.593,0.839,0.533,1.012,0.728,0.340,0.591,0.560,��,1.9,��
2022/08/17,10:30,0.594,0.841,0.533,1.015,0.730,0.341,0.591,0.559,��쓌,1.5,��
2022/08/17,10:40,0.595,0.841,0.532,1.013,0.731,0.340,0.592,0.559,�쓌,3.0,��
2022/08/17,10:50,0.594,0.841,0.534,1.014,0.730,0.340,0.591,0.558,�쓌,2.0,��
2022/08/17,11:00,0.595,0.841,0.534,1.014,0.729,0.340,0.590,0.559,��쓌,3.5,��
2022/08/17,11:10,0.594,0.840,0.533,1.012,0.727,0.340,0.592,0.558,��쓌,3.8,��
2022/08/17,11:20,0.594,0.841,0.534,1.013,0.729,0.340,0.591,0.557,��쓌,3.6,��
2022/08/17,11:30,0.593,0.840,0.534,1.015,0.730,0.340,0.590,0.557,�쓌,3.7,��
2022/08/17,11:40,0.594,0.840,0.534,1.012,0.733,0.340,0.589,0.558,�쓌,3.7,��
2022/08/17,11:50,0.594,0.841,0.533,1.015,0.730,0.341,0.590,0.556,�쓌,3.7,��
2022/08/17,12:00,0.592,0.842,0.533,1.014,0.727,0.340,0.592,0.557,��쓌,2.6,��
2022/08/17,12:10,0.593,0.841,0.534,1.014,0.732,0.340,0.591,0.557,�쓌,2.5,��
2022/08/17,12:20,0.595,0.842,0.535,1.013,0.729,0.340,0.590,0.558,�쓌,3.7,��
2022/08/17,12:30,0.594,0.843,0.534,1.013,0.730,0.341,0.591,0.558,���쓌,2.3,��
2022/08/17,12:40,0.593,0.841,0.535,1.014,0.731,0.340,0.590,0.556,�쓌,2.6,��
2022/08/17,12:50,0.595,0.840,0.534,1.015,0.730,0.341,0.590,0.555,���쓌,2.0,��
2022/08/17,13:00,0.592,0.841,0.533,1.015,0.729,0.340,0.590,0.556,�쓌,2.2,��
2022/08/17,13:10,0.593,0.840,0.532,1.017,0.730,0.340,0.591,0.556,�쓌,1.7,��
2022/08/17,13:20,0.595,0.840,0.533,1.017,0.731,0.341,0.591,0.556,�쓌,2.2,��
2022/08/17,13:30,0.594,0.840,0.532,1.014,0.726,0.342,0.590,0.556,���쓌,1.7,��
2022/08/17,13:40,0.593,0.840,0.534,1.016,0.730,0.340,0.592,0.556,���쓌,1.7,��
2022/08/17,13:50,0.593,0.839,0.534,1.015,0.729,0.341,0.590,0.557,�쓌,1.7,��
2022/08/17,14:00,0.593,0.840,0.532,1.018,0.731,0.341,0.589,0.558,�쓌,1.7,��
2022/08/17,14:10,0.594,0.841,0.534,1.017,0.730,0.341,0.591,0.556,�쓌,1.5,��
2022/08/17,14:20,0.594,0.841,0.532,1.015,0.731,0.340,0.590,0.556,��쓌,2.0,��
2022/08/17,14:30,0.594,0.841,0.530,1.016,0.732,0.341,0.590,0.555,��쓌,2.2,�L
2022/08/17,14:40,0.594,0.841,0.532,1.014,0.733,0.341,0.589,0.556,��쓌,2.6,�L
2022/08/17,14:50,0.595,0.842,0.533,1.016,0.731,0.341,0.591,0.557,��,3.1,�L
2022/08/17,15:00,0.594,0.841,0.533,1.017,0.731,0.343,0.590,0.556,��쓌,2.0,�L
2022/08/17,15:10,0.596,0.840,0.534,1.017,0.730,0.344,0.591,0.555,�쓌,1.9,�L
2022/08/17,15:20,0.598,0.842,0.534,1.018,0.730,0.343,0.591,0.556,��쓌,3.6,��
2022/08/17,15:30,0.595,0.845,0.536,1.016,0.729,0.342,0.590,0.555,��,4.9,��
2022/08/17,15:40,0.596,0.847,0.536,1.017,0.730,0.343,0.589,0.555,��,4.8,��
2022/08/17,15:50,0.594,0.845,0.536,1.016,0.729,0.341,0.592,0.555,��,4.7,�L
2022/08/17,16:00,0.597,0.845,0.534,1.019,0.730,0.341,0.591,0.555,��,4.1,�L
2022/08/17,16:10,0.595,0.844,0.536,1.016,0.729,0.341,0.591,0.555,��,4.5,�L
2022/08/17,16:20,0.596,0.846,0.536,1.017,0.728,0.340,0.590,0.556,��,3.1,�L
2022/08/17,16:30,0.596,0.846,0.535,1.015,0.726,0.340,0.590,0.559,��쓌,3.3,�L
2022/08/17,16:40,0.595,0.846,0.535,1.018,0.729,0.341,0.590,0.557,��,2.5,�L
2022/08/17,16:50,0.596,0.845,0.538,1.018,0.730,0.341,0.590,0.557,��,3.1,�L
2022/08/17,17:00,0.595,0.845,0.537,1.017,0.729,0.340,0.591,0.558,��,3.2,�L
2022/08/17,17:10,0.596,0.845,0.537,1.016,0.730,0.341,0.591,0.558,��쓌,3.9,�L
2022/08/17,17:20,0.595,0.846,0.535,1.017,0.728,0.340,0.592,0.557,��쓌,3.6,�L
2022/08/17,17:30,0.595,0.844,0.536,1.018,0.730,0.340,0.590,0.557,��쓌,3.4,�L
2022/08/17,17:40,0.596,0.844,0.535,1.017,0.728,0.340,0.591,0.559,��,4.4,�L
2022/08/17,17:50,0.595,0.848,0.535,1.018,0.731,0.339,0.590,0.557,��,3.7,��
2022/08/17,18:00,0.596,0.847,0.535,1.017,0.729,0.339,0.590,0.557,��,3.5,�L
2022/08/17,18:10,0.595,0.844,0.535,1.015,0.730,0.340,0.590,0.557,��,4.1,��
2022/08/17,18:20,0.594,0.847,0.536,1.017,0.728,0.340,0.589,0.559,��,3.8,��
2022/08/17,18:30,0.595,0.847,0.536,1.016,0.727,0.339,0.592,0.557,��,3.6,��
2022/08/17,18:40,0.593,0.844,0.534,1.017,0.731,0.340,0.590,0.557,��,2.6,�L
2022/08/17,18:50,0.593,0.843,0.534,1.017,0.730,0.339,0.591,0.557,��,3.0,�L
2022/08/17,19:00,0.594,0.846,0.535,1.015,0.731,0.341,0.591,0.558,��쐼,3.2,�L
2022/08/17,19:10,0.596,0.845,0.536,1.016,0.730,0.341,0.592,0.557,��,3.0,�L
2022/08/17,19:20,0.596,0.846,0.535,1.018,0.730,0.341,0.591,0.557,��,3.4,�L
2022/08/17,19:30,0.594,0.845,0.536,1.017,0.729,0.343,0.589,0.555,��,4.1,�L
2022/08/17,19:40,0.596,0.846,0.534,1.019,0.727,0.342,0.587,0.554,��,4.3,�L
2022/08/17,19:50,0.596,0.844,0.535,1.017,0.726,0.341,0.588,0.554,��,5.9,�L
2022/08/17,20:00,0.595,0.845,0.535,1.017,0.724,0.341,0.588,0.556,��,4.7,�L
2022/08/17,20:10,0.596,0.844,0.536,1.017,0.724,0.340,0.587,0.554,��,4.4,��
2022/08/17,20:20,0.593,0.842,0.534,1.019,0.724,0.340,0.587,0.553,��,2.6,��
2022/08/17,20:30,0.593,0.842,0.534,1.017,0.724,0.339,0.587,0.553,��,3.5,�L
2022/08/17,20:40,0.593,0.841,0.534,1.016,0.725,0.339,0.585,0.553,��,3.9,��
2022/08/17,20:50,0.593,0.842,0.535,1.015,0.725,0.339,0.587,0.552,��,5.3,��
2022/08/17,21:00,0.596,0.842,0.533,1.016,0.722,0.337,0.585,0.552,��,6.4,�L
2022/08/17,21:10,0.594,0.843,0.533,1.014,0.723,0.339,0.586,0.552,��,6.4,�L
2022/08/17,21:20,0.592,0.841,0.534,1.014,0.724,0.337,0.586,0.553,��,6.8,�L
2022/08/17,21:30,0.594,0.841,0.534,1.015,0.722,0.338,0.587,0.553,��,6.5,�L
2022/08/17,21:40,0.593,0.840,0.534,1.016,0.725,0.337,0.585,0.552,��쐼,5.7,��
2022/08/17,21:50,0.593,0.841,0.533,1.016,0.723,0.338,0.585,0.553,��쐼,6.1,��
2022/08/17,22:00,0.593,0.841,0.535,1.015,0.724,0.338,0.585,0.553,��,5.7,��
2022/08/17,22:10,0.593,0.841,0.534,1.016,0.723,0.338,0.586,0.552,��,4.7,��
2022/08/17,22:20,0.594,0.843,0.529,1.015,0.725,0.339,0.587,0.552,��,5.3,�L
2022/08/17,22:30,0.593,0.842,0.533,1.016,0.724,0.338,0.586,0.552,��,5.5,��
2022/08/17,22:40,0.592,0.840,0.531,1.016,0.727,0.339,0.587,0.552,��쐼,5.0,��
2022/08/17,22:50,0.593,0.842,0.534,1.017,0.725,0.339,0.585,0.554,��쐼,4.7,�L
2022/08/17,23:00,0.593,0.843,0.532,1.015,0.724,0.338,0.586,0.553,��쐼,5.2,�L
2022/08/17,23:10,0.595,0.843,0.534,1.017,0.724,0.337,0.586,0.552,��,5.3,�L
2022/08/17,23:20,0.592,0.841,0.533,1.014,0.724,0.338,0.588,0.553,��쐼,5.9,�L
2022/08/17,23:30,0.593,0.841,0.533,1.016,0.726,0.339,0.586,0.552,��쐼,6.6,�L
2022/08/17,23:40,0.596,0.842,0.533,1.014,0.724,0.338,0.586,0.552,��쐼,6.2,�L
2022/08/17,23:50,0.592,0.840,0.533,1.014,0.725,0.339,0.586,0.552,��,5.9,�L
